Date String (YYYY-MM-DD hh:mm:ss) UTC,Instrument flags,Ambient pressure (hPa),Sample flow (lpm),Bypass flow (lpm),Sample temperature (°C),Ambient temperature (°C),ASC tube jacket temperature (°C),LED temperature (°C),Box temperature (°C),Sample RH (%),Span deviation,Mass concentration (μg/m³),Mass concentration (μg/m³),Mass concentration (μg/m³)
DateTimeUTC,F1_M11,P_M11,Q1_M11,Q2_M11,T1_M11,T2_M11,T3_M11,T4_M11,T5_M11,U1_M11,ZSPAN_M11,X0_M11,X2_M11,X1_M11
2021-10-26 15:00:00,,0809.9,5.00,0.00,29.3,28.4,00.0,38.4,31.1,12.5,0000.0,0013.87,0004.23,0003.07
2021-10-26 15:01:00,,0809.9,4.99,0.00,29.3,28.4,00.0,38.4,31.1,12.5,0000.0,0012.91,0004.20,0003.02
2021-10-26 15:02:00,,0809.9,5.01,0.00,29.3,28.4,00.0,38.4,31.1,12.5,0000.0,0012.44,0004.14,0002.96
2021-10-26 15:03:00,,0809.9,5.00,0.00,29.3,28.4,00.0,38.4,31.1,12.3,0000.0,0012.87,0004.10,0002.92
2021-10-26 15:04:00,,0809.9,5.00,0.00,29.3,28.4,00.0,38.4,31.1,12.2,0000.0,0012.95,0004.09,0002.88
2021-10-26 15:05:00,,0809.9,5.00,0.00,29.3,28.4,00.0,38.4,31.1,12.4,0000.0,0012.68,0004.04,0002.83
2021-10-26 15:06:00,,0809.9,4.99,0.00,29.3,28.4,00.0,38.4,31.1,12.3,0000.0,0012.11,0003.99,0002.79
2021-10-26 15:07:00,,0809.9,5.00,0.00,29.4,28.4,00.0,38.4,31.1,12.2,0000.0,0011.96,0003.97,0002.76
2021-10-26 15:08:00,,0809.9,5.01,0.00,29.4,28.4,00.0,38.4,31.1,12.0,0000.0,0012.30,0004.02,0002.75
2021-10-26 15:09:00,,0809.9,5.00,0.00,29.3,28.4,00.0,38.4,31.1,12.0,0000.0,0012.76,0004.04,0002.75
2021-10-26 15:10:00,,0809.9,5.01,0.00,29.3,28.4,00.0,38.4,31.1,11.9,0000.0,0013.66,0004.16,0002.74
2021-10-26 15:11:00,,0810.0,5.00,0.00,29.3,28.4,00.0,38.4,31.1,11.6,0000.0,0015.62,0004.30,0002.74
2021-10-26 15:12:00,,0809.9,4.99,0.00,29.3,28.4,00.0,38.4,31.1,11.8,0000.0,0016.81,0004.42,0002.73
2021-10-26 15:13:00,,0809.9,5.00,0.00,29.3,28.4,00.0,38.4,31.1,11.7,0000.0,0017.21,0004.46,0002.74
2021-10-26 15:14:00,,0810.0,5.01,0.00,29.4,28.4,00.0,38.4,31.1,11.6,0000.0,0017.17,0004.43,0002.71
2021-10-26 15:15:00,,0810.0,4.99,0.00,29.4,28.4,00.0,38.4,31.1,11.6,0000.0,0017.18,0004.40,0002.68
2021-10-26 15:16:00,,0809.7,5.01,0.00,29.4,28.4,00.0,38.4,31.1,11.6,0000.0,0017.12,0004.42,0002.65
2021-10-26 15:17:00,,0809.7,5.00,0.00,29.4,28.4,00.0,38.4,31.1,11.7,0000.0,0017.05,0004.41,0002.64
2021-10-26 15:18:00,,0809.7,4.99,0.00,29.4,28.4,00.0,38.4,31.1,11.6,0000.0,0017.24,0004.34,0002.61
2021-10-26 15:19:00,,0809.7,4.99,0.00,29.4,28.5,00.0,38.4,31.1,11.5,0000.0,0017.09,0004.27,0002.58
2021-10-26 15:20:00,,0809.7,5.01,0.00,29.4,28.5,00.0,38.4,31.1,11.3,0000.0,0016.24,0004.21,0002.53
2021-10-26 15:21:00,,0809.7,5.00,0.00,29.4,28.5,00.0,38.5,31.1,11.4,0000.0,0015.05,0004.03,0002.48
2021-10-26 15:22:00,,0809.7,4.98,0.00,29.4,28.5,00.0,38.5,31.1,11.5,0000.0,0012.81,0003.80,0002.44
2021-10-26 15:23:00,,0809.7,5.01,0.00,29.4,28.5,00.0,38.5,31.2,11.6,0000.0,0011.18,0003.69,0002.40
2021-10-26 15:24:00,,0809.5,4.99,0.00,29.4,28.5,00.0,38.5,31.2,11.6,0000.0,0011.36,0003.61,0002.37
2021-10-26 15:25:00,,0809.5,5.00,0.00,29.4,28.5,00.0,38.5,31.2,11.5,0000.0,0010.89,0003.57,0002.34
2021-10-26 15:26:00,,0809.5,5.00,0.00,29.4,28.5,00.0,38.5,31.2,11.5,0000.0,0011.85,0003.54,0002.32
2021-10-26 15:27:00,,0809.5,4.99,0.00,29.4,28.5,00.0,38.5,31.2,11.6,0000.0,0011.72,0003.49,0002.32
2021-10-26 15:28:00,,0809.6,5.00,0.00,29.4,28.5,00.0,38.5,31.2,11.6,0000.0,0011.66,0003.49,0002.30
2021-10-26 15:29:00,,0809.5,5.01,0.00,29.4,28.6,00.0,38.5,31.2,11.7,0000.0,0010.99,0003.56,0002.32
2021-10-26 15:30:00,,0809.4,5.00,0.00,29.4,28.6,00.0,38.5,31.2,11.7,0000.0,0010.30,0003.59,0002.33
2021-10-26 15:31:00,,0809.4,5.00,0.00,29.4,28.6,00.0,38.5,31.2,11.7,0000.0,0010.39,0003.60,0002.34
2021-10-26 15:32:00,,0809.4,5.01,0.00,29.4,28.6,00.0,38.5,31.2,11.7,0000.0,0010.72,0003.62,0002.35
2021-10-26 15:33:00,,0809.3,5.00,0.00,29.4,28.6,00.0,38.5,31.2,11.7,0000.0,0011.18,0003.64,0002.34
2021-10-26 15:34:00,,0809.3,4.99,0.00,29.5,28.6,00.0,38.5,31.2,11.7,0000.0,0011.28,0003.58,0002.33
2021-10-26 15:35:00,,0809.2,5.01,0.00,29.5,28.6,00.0,38.5,31.2,11.8,0000.0,0010.57,0003.58,0002.32
2021-10-26 15:36:00,,0809.2,5.01,0.00,29.5,28.6,00.0,38.5,31.2,11.7,0000.0,0010.64,0003.58,0002.32
2021-10-26 15:37:00,,0809.3,5.00,0.00,29.5,28.6,00.0,38.5,31.2,11.7,0000.0,0009.73,0003.57,0002.32
2021-10-26 15:38:00,,0809.3,4.99,0.00,29.5,28.6,00.0,38.5,31.3,11.6,0000.0,0009.68,0003.57,0002.31
2021-10-26 15:39:00,,0809.2,5.00,0.00,29.5,28.6,00.0,38.6,31.3,11.6,0000.0,0010.06,0003.55,0002.31
2021-10-26 15:40:00,,0809.2,4.99,0.00,29.5,28.6,00.0,38.6,31.3,11.6,0000.0,0010.13,0003.47,0002.28
2021-10-26 15:41:00,,0809.2,5.00,0.00,29.5,28.6,00.0,38.6,31.3,11.6,0000.0,0011.21,0003.45,0002.28
2021-10-26 15:42:00,,0809.2,5.00,0.00,29.5,28.7,00.0,38.6,31.3,11.6,0000.0,0011.12,0003.41,0002.26
2021-10-26 15:43:00,,0809.2,5.00,0.00,29.5,28.6,00.0,38.6,31.3,11.4,0000.0,0011.14,0003.36,0002.24
2021-10-26 15:44:00,,0809.2,5.00,0.00,29.5,28.7,00.0,38.6,31.3,11.4,0000.0,0010.66,0003.35,0002.22
2021-10-26 15:45:00,,0809.2,4.99,0.00,29.5,28.7,00.0,38.6,31.3,11.5,0000.0,0010.46,0003.36,0002.20
2021-10-26 15:46:00,,0809.2,5.00,0.00,29.5,28.7,00.0,38.6,31.3,11.5,0000.0,0010.62,0003.36,0002.19
2021-10-26 15:47:00,,0809.2,5.02,0.00,29.5,28.7,00.0,38.6,31.3,11.5,0000.0,0010.58,0003.36,0002.19
2021-10-26 15:48:00,,0809.2,5.00,0.00,29.6,28.7,00.0,38.6,31.3,11.6,0000.0,0010.81,0003.37,0002.18
2021-10-26 15:49:00,,0809.2,4.99,0.00,29.6,28.7,00.0,38.6,31.3,11.5,0000.0,0010.88,0003.36,0002.16
2021-10-26 15:50:00,,0809.1,5.00,0.00,29.6,28.7,00.0,38.6,31.3,11.5,0000.0,0010.47,0003.32,0002.15
2021-10-26 15:51:00,,0809.1,5.00,0.00,29.6,28.7,00.0,38.6,31.3,11.4,0000.0,0010.35,0003.37,0002.13
2021-10-26 15:52:00,,0809.1,5.00,0.00,29.6,28.7,00.0,38.6,31.3,11.4,0000.0,0009.47,0003.36,0002.11
2021-10-26 15:53:00,,0809.2,5.00,0.00,29.6,28.7,00.0,38.7,31.4,11.3,0000.0,0009.60,0003.37,0002.11
2021-10-26 15:54:00,,0809.2,5.00,0.00,29.6,28.7,00.0,38.7,31.4,11.3,0000.0,0009.27,0003.39,0002.11
2021-10-26 15:55:00,,0809.1,5.00,0.00,29.6,28.8,00.0,38.7,31.4,11.3,0000.0,0009.39,0003.43,0002.12
2021-10-26 15:56:00,,0809.1,5.01,0.00,29.6,28.8,00.0,38.7,31.4,11.4,0000.0,0009.83,0003.43,0002.12
2021-10-26 15:57:00,,0809.0,5.01,0.00,29.6,28.8,00.0,38.7,31.4,11.7,0000.0,0009.48,0003.36,0002.12
2021-10-26 15:58:00,,0809.1,4.99,0.00,29.6,28.8,00.0,38.7,31.4,12.0,0000.0,0009.76,0003.34,0002.13
2021-10-26 15:59:00,,0809.1,5.01,0.00,29.6,28.8,00.0,38.7,31.4,11.6,0000.0,0009.43,0003.29,0002.11
